Kahului Airport

Airport
ICAO code: 
PHOG
IATA Code: 
OGG
Summary
ICAO Region: 
NAM
Territory: 
Location: 
Kahului, Hawaii
Serving: 
Kahului
Elevation: 
54 ft
Coordinates: 
Aerial View: 
20° 53' 47.023" N, 156° 26' 2.75" W
Airport BS: 
Bird Strike
Metar
Observation
PHOG 240654Z 05010KT 10SM FEW040 23/18 A3009 RMK AO2 SLP194 T02280178
Station
Kahului, Kahului Airport
Date/Time
2022-01-24 06:54:00
Wind direction
50°
Wind speed
10 kts
Lowest cloud amount
few clouds
Temperature
22.8°C
Dew point
17.8°C
Humidity
73%
Weather condition
n/a

Description

Kahului Airport is a regional airport in the state of Hawaii, located east of the Kahului CDP in Maui County on the island of Maui near Haleakala.

Climatology

Tropical Savanna climate (Köppen climate classification As) - monthly mean temperature above 18°C in every month of the year and a pronounced dry season.

Runways

Designator Length Width Surface Rops
5/23 1521 46 ASP Yes/Yes
2/20 2132 46 ASP Yes/Yes
Airport map: 
Aerial View: 

SKYbrary Partners:

Safety knowledge contributed by: